YO4FZV-11 Weather Reports


time (UTC)temp
C
wind
direction
speed
KPH
gust
KPH
rain 1hr
cm
rain 24hr
cm
rain mn
cm
humidity
%
barometer
mb
20260508083253 18 135 3.2 17.7 0.00 0.00 0.00 69 1015.0
20260508082753 18 157 16.1 16.1 0.00 0.00 0.00 69 1014.9
20260508082253 18 112 4.8 14.5 0.00 0.00 0.00 68 1014.9
20260508081753 18 135 12.9 17.7 0.00 0.00 0.00 67 1014.9
20260508081253 18 157 4.8 20.9 0.00 0.00 0.00 68 1015.1
20260508080753 18 157 14.5 14.5 0.00 0.00 0.00 68 1015.0
20260508080253 18 157 9.7 16.1 0.00 0.00 0.00 69 1014.9
20260508075753 18 157 6.4 16.1 0.00 0.00 0.00 69 1014.9
20260508075253 18 157 14.5 16.1 0.00 0.00 0.00 70 1014.9
20260508074754 18 135 8.0 14.5 0.00 0.00 0.00 69 1014.8
20260508074253 18 180 8.0 17.7 0.00 0.00 0.00 71 1014.7
20260508073753 17 157 6.4 14.5 0.00 0.00 0.00 72 1014.6
20260508073253 17 135 9.7 14.5 0.00 0.00 0.00 73 1014.6
20260508072753 17 157 14.5 14.5 0.00 0.00 0.00 72 1014.8
20260508072253 17 135 3.2 14.5 0.00 0.00 0.00 72 1014.6
20260508071753 17 135 9.7 14.5 0.00 0.00 0.00 73 1014.7
20260508071253 17 135 9.7 16.1 0.00 0.00 0.00 73 1014.7
20260508070754 17 157 12.9 14.5 0.00 0.00 0.00 71 1014.7
20260508070254 17 135 16.1 19.3 0.00 0.00 0.00 71 1014.7
20260508065753 17 157 8.0 12.9 0.00 0.00 0.00 73 1014.6
20260508065253 17 157 17.7 17.7 0.00 0.00 0.00 72 1014.6
20260508064753 17 180 9.7 14.5 0.00 0.00 0.00 71 1014.5
20260508064253 17 180 8.0 14.5 0.00 0.00 0.00 71 1014.5
20260508063753 17 180 11.3 14.5 0.00 0.00 0.00 73 1014.5
20260508063253 16 157 4.8 17.7 0.00 0.00 0.00 76 1014.5
20260508062753 15 157 4.8 12.9 0.00 0.00 0.00 77 1014.6
20260508062253 15 157 6.4 12.9 0.00 0.00 0.00 78 1014.6
20260508061753 15 180 12.9 12.9 0.00 0.00 0.00 78 1014.6
20260508061253 15 157 12.9 14.5 0.00 0.00 0.00 78 1014.5
20260508060753 15 157 11.3 14.5 0.00 0.00 0.00 79 1014.6
20260508060253 15 157 12.9 14.5 0.00 0.00 0.00 79 1014.5
20260508055753 15 157 9.7 14.5 0.00 0.00 0.00 78 1014.5
20260508055253 15 157 12.9 16.1 0.00 0.00 0.00 78 1014.6
20260508054754 15 157 8.0 16.1 0.00 0.00 0.00 79 1014.6
20260508054253 14 180 16.1 16.1 0.00 0.00 0.00 81 1014.8
20260508053753 13 180 6.4 12.9 0.00 0.00 0.00 82 1014.8
20260508053253 13 180 14.5 14.5 0.00 0.00 0.00 82 1014.8
20260508052753 13 180 6.4 16.1 0.00 0.00 0.00 83 1014.7
20260508052253 13 157 11.3 14.5 0.00 0.00 0.00 82 1014.7
20260508051753 13 157 6.4 12.9 0.00 0.00 0.00 82 1014.6
20260508051254 13 157 8.0 12.9 0.00 0.00 0.00 81 1014.5
20260508050753 13 157 4.8 16.1 0.00 0.00 0.00 79 1014.5
20260508050253 14 157 4.8 14.5 0.00 0.00 0.00 79 1014.5
20260508045753 14 157 3.2 12.9 0.00 0.00 0.00 79 1014.5
20260508045253 14 157 3.2 17.7 0.00 0.00 0.00 78 1014.5
20260508044753 15 202 9.7 16.1 0.00 0.00 0.00 79 1014.5
20260508044253 13 157 4.8 11.3 0.00 0.00 0.00 83 1014.5
20260508043753 12 157 8.0 8.0 0.00 0.00 0.00 83 1014.5
20260508043253 12 180 6.4 12.9 0.00 0.00 0.00 84 1014.6
20260508042753 12 135 9.7 9.7 0.00 0.00 0.00 85 1014.7
20260508042253 12 157 8.0 12.9 0.00 0.00 0.00 85 1014.7
20260508041753 12 180 3.2 14.5 0.00 0.00 0.00 86 1014.7
20260508041253 12 180 0.0 0.0 0.00 0.00 0.00 86 1014.7
20260508040753 11 157 9.7 14.5 0.00 0.00 0.00 86 1014.7
20260508040253 11 157 6.4 16.1 0.00 0.00 0.00 86 1014.6
20260508035753 11 157 9.7 12.9 0.00 0.00 0.00 87 1014.6
20260508035253 11 157 4.8 11.3 0.00 0.00 0.00 87 1014.5
20260508034754 11 180 16.1 16.1 0.00 0.00 0.00 87 1014.6
20260508034253 11 157 6.4 17.7 0.00 0.00 0.00 87 1014.4
20260508033753 11 180 9.7 12.9 0.00 0.00 0.00 87 1014.4
20260508033254 11 180 16.1 16.1 0.00 0.00 0.00 87 1014.4
20260508032754 11 202 6.4 14.5 0.00 0.00 0.00 87 1014.5
20260508032253 11 202 9.7 14.5 0.00 0.00 0.00 88 1014.4
20260508031754 11 112 6.4 16.1 0.00 0.00 0.00 88 1014.4
20260508031254 11 157 9.7 12.9 0.00 0.00 0.00 88 1014.4
20260508030754 11 157 11.3 14.5 0.00 0.00 0.00 88 1014.4
20260508030254 11 157 14.5 17.7 0.00 0.00 0.00 88 1014.4
20260508025754 11 157 6.4 12.9 0.00 0.00 0.00 88 1014.4
20260508025254 11 180 8.0 12.9 0.00 0.00 0.00 88 1014.3
20260508024754 11 202 8.0 12.9 0.00 0.00 0.00 88 1014.2
20260508024254 11 180 4.8 14.5 0.00 0.00 0.00 88 1014.2
20260508023754 11 157 14.5 19.3 0.00 0.00 0.00 88 1014.2
20260508023254 11 180 16.1 16.1 0.00 0.00 0.00 88 1014.1
20260508022754 11 202 6.4 12.9 0.00 0.00 0.00 88 1014.1
20260508022254 11 202 6.4 17.7 0.00 0.00 0.00 89 1014.1
20260508021754 11 157 14.5 14.5 0.00 0.00 0.00 88 1014.1
20260508021254 11 180 3.2 16.1 0.00 0.00 0.00 88 1014.0
20260508020754 11 202 14.5 14.5 0.00 0.00 0.00 88 1014.0
20260508020254 11 157 3.2 14.5 0.00 0.00 0.00 88 1014.0
20260508015754 11 135 8.0 14.5 0.00 0.00 0.00 88 1014.0
20260508015254 11 180 8.0 16.1 0.00 0.00 0.00 88 1013.9
20260508014754 11 157 14.5 14.5 0.00 0.00 0.00 88 1013.9
20260508014254 11 157 12.9 16.1 0.00 0.00 0.00 89 1013.8
20260508013754 11 202 3.2 14.5 0.00 0.00 0.00 88 1014.0
20260508013254 11 180 4.8 11.3 0.00 0.00 0.00 87 1013.9
20260508012754 11 157 11.3 19.3 0.00 0.00 0.00 88 1014.0
20260508012254 11 180 9.7 14.5 0.00 0.00 0.00 88 1014.1
20260508011754 11 157 8.0 14.5 0.00 0.00 0.00 88 1014.1
20260508011254 11 180 6.4 17.7 0.00 0.00 0.00 88 1014.2
20260508010754 11 180 6.4 14.5 0.00 0.00 0.00 88 1014.1
20260508010254 11 157 4.8 14.5 0.00 0.00 0.00 88 1014.2
20260508005754 11 180 4.8 14.5 0.00 0.00 0.00 88 1014.2
20260508005254 11 157 3.2 19.3 0.00 0.00 0.00 88 1014.2
20260508004754 11 180 4.8 12.9 0.00 0.00 0.00 88 1014.2
20260508004254 11 202 12.9 14.5 0.00 0.00 0.00 88 1014.1
20260508003754 11 202 6.4 16.1 0.00 0.00 0.00 87 1014.1
20260508003254 11 157 8.0 16.1 0.00 0.00 0.00 87 1014.2
20260508002754 11 180 12.9 14.5 0.00 0.00 0.00 87 1014.2
20260508002254 11 157 8.0 12.9 0.00 0.00 0.00 88 1014.2
20260508001754 11 180 8.0 12.9 0.00 0.00 0.00 88 1014.2
20260508001254 11 180 6.4 14.5 0.00 0.00 0.00 87 1014.3
20260508000754 11 202 11.3 12.9 0.00 0.00 0.00 87 1014.3
20260508000254 11 157 8.0 12.9 0.00 0.00 0.00 87 1014.3
20260507235754 11 180 4.8 16.1 0.00 0.00 0.00 86 1014.3
20260507235254 11 157 14.5 22.5 0.00 0.00 0.00 87 1014.5
20260507234754 11 202 3.2 17.7 0.00 0.00 0.00 87 1014.5
20260507234254 11 135 9.7 17.7 0.00 0.00 0.00 87 1014.7
20260507233754 11 202 12.9 12.9 0.00 0.00 0.00 87 1014.7
20260507233254 11 202 8.0 14.5 0.00 0.00 0.00 87 1014.8
20260507232754 11 180 11.3 16.1 0.00 0.00 0.00 87 1014.7
20260507232254 11 157 12.9 17.7 0.00 0.00 0.00 87 1014.8
20260507231754 11 180 8.0 16.1 0.00 0.00 0.00 87 1014.9
20260507231254 11 180 12.9 12.9 0.00 0.00 0.00 87 1015.0
20260507230754 11 157 8.0 17.7 0.00 0.00 0.00 86 1014.9
20260507230254 11 180 9.7 20.9 0.00 0.00 0.00 86 1015.0
20260507225754 11 202 6.4 14.5 0.00 0.00 0.00 86 1015.1
20260507225254 11 157 6.4 12.9 0.00 0.00 0.00 86 1015.1
20260507224754 11 180 12.9 14.5 0.00 0.00 0.00 86 1015.1
20260507224254 11 157 12.9 17.7 0.00 0.00 0.00 87 1015.1
20260507223754 11 202 9.7 20.9 0.00 0.00 0.00 86 1015.1
20260507223254 11 180 6.4 20.9 0.00 0.00 0.00 86 1015.1
20260507222754 11 180 6.4 16.1 0.00 0.00 0.00 87 1015.1
20260507222254 11 157 12.9 17.7 0.00 0.00 0.00 86 1015.1
20260507221754 11 180 8.0 17.7 0.00 0.00 0.00 87 1015.2
20260507221254 11 157 11.3 17.7 0.00 0.00 0.00 86 1015.2
20260507220754 11 157 8.0 12.9 0.00 0.00 0.00 87 1015.2
20260507220254 11 157 9.7 16.1 0.00 0.00 0.00 86 1015.1
20260507215754 11 135 6.4 19.3 0.00 0.00 0.00 86 1015.0
20260507215254 12 157 19.3 19.3 0.00 0.00 0.00 86 1015.1
20260507214754 12 202 6.4 16.1 0.00 0.00 0.00 86 1015.1
20260507214254 12 157 11.3 14.5 0.00 0.00 0.00 86 1015.1
20260507213754 12 180 14.5 22.5 0.00 0.00 0.00 86 1015.1
20260507213254 12 180 9.7 14.5 0.00 0.00 0.00 86 1015.1
20260507212754 11 180 6.4 17.7 0.00 0.00 0.00 85 1015.2
20260507212254 12 202 6.4 14.5 0.00 0.00 0.00 86 1015.2
20260507211754 11 157 14.5 17.7 0.00 0.00 0.00 86 1015.2
20260507211254 11 180 16.1 19.3 0.00 0.00 0.00 85 1015.3
20260507210754 12 135 6.4 14.5 0.00 0.00 0.00 86 1015.3
20260507210254 12 202 6.4 14.5 0.00 0.00 0.00 86 1015.3
20260507205754 12 157 11.3 14.5 0.00 0.00 0.00 86 1015.3
20260507205254 12 180 14.5 24.1 0.00 0.00 0.00 85 1015.3
20260507204754 12 202 9.7 19.3 0.00 0.00 0.00 86 1015.3
20260507204254 12 157 4.8 22.5 0.00 0.00 0.00 86 1015.3
20260507203754 12 202 8.0 16.1 0.00 0.00 0.00 86 1015.3
20260507203254 12 157 6.4 12.9 0.00 0.00 0.00 86 1015.2
20260507202754 12 180 3.2 20.9 0.00 0.00 0.00 86 1015.2
20260507202254 12 180 12.9 12.9 0.00 0.00 0.00 86 1015.2
20260507201754 12 157 6.4 14.5 0.00 0.00 0.00 86 1015.1
20260507201254 12 202 11.3 16.1 0.00 0.00 0.00 86 1015.0
20260507200754 12 157 19.3 19.3 0.00 0.00 0.00 86 1015.1
20260507200254 12 135 4.8 14.5 0.00 0.00 0.00 86 1015.1
20260507195754 12 157 4.8 16.1 0.00 0.00 0.00 86 1015.1
20260507195254 12 202 11.3 16.1 0.00 0.00 0.00 87 1015.2
20260507194754 12 180 16.1 17.7 0.00 0.00 0.00 86 1015.2
20260507194254 12 157 16.1 17.7 0.00 0.00 0.00 86 1015.2
20260507193754 12 157 12.9 12.9 0.00 0.00 0.00 86 1015.2
20260507193254 12 157 8.0 17.7 0.00 0.00 0.00 86 1015.2
20260507192754 12 157 11.3 14.5 0.00 0.00 0.00 86 1015.3
20260507192254 12 157 6.4 16.1 0.00 0.00 0.00 86 1015.3
20260507191754 12 157 12.9 16.1 0.00 0.00 0.00 87 1015.3
20260507191255 12 157 8.0 12.9 0.00 0.00 0.00 86 1015.3
20260507190754 12 135 9.7 16.1 0.00 0.00 0.00 86 1015.2
20260507190254 12 157 6.4 12.9 0.00 0.00 0.00 86 1015.2
20260507185754 12 180 3.2 12.9 0.00 0.00 0.00 86 1015.2
20260507185254 12 180 8.0 16.1 0.00 0.00 0.00 86 1015.2
20260507184755 12 135 11.3 16.1 0.00 0.00 0.00 86 1015.2
20260507184254 12 157 12.9 14.5 0.00 0.00 0.00 86 1015.2
20260507183754 12 157 6.4 16.1 0.00 0.00 0.00 86 1015.2
20260507183254 12 157 16.1 16.1 0.00 0.00 0.00 85 1015.3
20260507182754 12 180 8.0 14.5 0.00 0.00 0.00 86 1015.1
20260507182254 12 135 8.0 19.3 0.00 0.00 0.00 86 1015.1
20260507181754 12 180 4.8 19.3 0.00 0.00 0.00 85 1015.1
20260507181254 12 157 9.7 19.3 0.00 0.00 0.00 84 1015.1
20260507180754 12 180 16.1 17.7 0.00 0.00 0.00 85 1015.1
20260507180254 12 180 8.0 17.7 0.00 0.00 0.00 85 1015.0
20260507175754 12 180 6.4 16.1 0.00 0.00 0.00 85 1015.0
20260507175254 12 157 8.0 16.1 0.00 0.00 0.00 85 1015.0
20260507174754 12 180 11.3 19.3 0.00 0.00 0.00 85 1014.9
20260507174254 12 157 6.4 16.1 0.00 0.00 0.00 85 1015.0
20260507173754 12 157 9.7 14.5 0.00 0.00 0.00 86 1014.9
20260507173254 12 180 14.5 17.7 0.00 0.00 0.00 86 1014.9
20260507172754 12 157 16.1 16.1 0.00 0.00 0.00 85 1014.9
20260507172254 12 157 9.7 17.7 0.00 0.00 0.00 86 1014.8
20260507171754 12 157 6.4 17.7 0.00 0.00 0.00 86 1014.8
20260507171254 12 135 12.9 19.3 0.00 0.00 0.00 86 1014.8
20260507170754 12 157 9.7 12.9 0.00 0.00 0.00 85 1014.9
20260507170254 12 157 12.9 19.3 0.00 0.00 0.00 85 1014.8
20260507165754 12 157 9.7 20.9 0.00 0.00 0.00 85 1014.8
20260507165254 12 157 9.7 17.7 0.00 0.00 0.00 85 1014.9
20260507164754 12 157 8.0 17.7 0.00 0.00 0.00 84 1015.0
20260507164254 12 157 9.7 16.1 0.00 0.00 0.00 84 1014.9
20260507163754 12 157 16.1 16.1 0.00 0.00 0.00 84 1014.9
20260507163254 12 135 6.4 16.1 0.00 0.00 0.00 84 1014.9
20260507162754 12 157 8.0 12.9 0.00 0.00 0.00 83 1014.9
20260507162254 12 157 9.7 17.7 0.00 0.00 0.00 83 1014.8
20260507161754 12 157 8.0 14.5 0.00 0.00 0.00 82 1014.8
20260507161254 12 180 9.7 16.1 0.00 0.00 0.00 82 1014.8
20260507160754 12 157 8.0 17.7 0.00 0.00 0.00 82 1014.9
20260507160254 12 157 9.7 27.4 0.00 0.00 0.00 82 1015.0
20260507155754 13 180 16.1 17.7 0.00 0.00 0.00 81 1015.1
20260507155255 13 180 4.8 19.3 0.00 0.00 0.00 81 1015.0
20260507154754 13 180 6.4 20.9 0.00 0.00 0.00 80 1015.0
20260507154254 13 202 12.9 16.1 0.00 0.00 0.00 79 1015.1
20260507153754 14 180 8.0 14.5 0.00 0.00 0.00 80 1015.1
20260507153255 14 157 12.9 16.1 0.00 0.00 0.00 79 1015.2
20260507152755 14 112 12.9 19.3 0.00 0.00 0.00 79 1015.1
20260507152255 15 157 16.1 22.5 0.00 0.00 0.00 79 1015.2
20260507151754 15 157 12.9 20.9 0.00 0.00 0.00 79 1015.3
20260507151254 15 157 17.7 17.7 0.00 0.00 0.00 78 1015.4
20260507150755 15 180 6.4 19.3 0.00 0.00 0.00 78 1015.3
20260507150255 15 157 16.1 24.1 0.00 0.00 0.00 78 1015.4
20260507145755 15 157 11.3 22.5 0.00 0.00 0.00 78 1015.4
20260507145255 15 157 16.1 20.9 0.00 0.00 0.00 78 1015.3
20260507144755 15 180 16.1 17.7 0.00 0.00 0.00 76 1015.5
20260507144255 15 135 6.4 19.3 0.00 0.00 0.00 77 1015.5
20260507143755 15 157 14.5 20.9 0.00 0.00 0.00 77 1015.6
20260507143255 15 135 17.7 24.1 0.00 0.00 0.00 76 1015.5
20260507142755 15 135 8.0 19.3 0.00 0.00 0.00 77 1015.5
20260507142255 15 135 8.0 19.3 0.00 0.00 0.00 77 1015.5
20260507141755 15 157 11.3 20.9 0.00 0.00 0.00 75 1015.6
20260507141255 15 180 14.5 20.9 0.00 0.00 0.00 76 1015.6
20260507140755 15 157 20.9 20.9 0.00 0.00 0.00 75 1015.6
20260507140255 15 157 9.7 19.3 0.00 0.00 0.00 75 1015.7
20260507135755 15 157 11.3 17.7 0.00 0.00 0.00 76 1015.7
20260507135255 16 157 11.3 19.3 0.00 0.00 0.00 75 1015.7
20260507134755 15 157 14.5 19.3 0.00 0.00 0.00 74 1015.6
20260507134255 16 157 11.3 22.5 0.00 0.00 0.00 74 1015.6
20260507133755 16 112 8.0 22.5 0.00 0.00 0.00 74 1015.7
20260507133255 16 180 14.5 20.9 0.00 0.00 0.00 74 1015.7
20260507132755 16 157 16.1 24.1 0.00 0.00 0.00 74 1015.7
20260507132255 16 135 8.0 25.7 0.00 0.00 0.00 74 1015.7
20260507131755 16 157 22.5 22.5 0.00 0.00 0.00 74 1015.7
20260507131255 16 157 16.1 20.9 0.00 0.00 0.00 73 1015.8
20260507130755 16 157 19.3 24.1 0.00 0.00 0.00 74 1015.9
20260507130255 16 157 16.1 25.7 0.00 0.00 0.00 74 1015.8
20260507125755 16 157 14.5 24.1 0.00 0.00 0.00 72 1016.0
20260507125255 16 135 12.9 22.5 0.00 0.00 0.00 71 1016.0
20260507124755 17 157 11.3 19.3 0.00 0.00 0.00 71 1016.0
20260507124255 17 157 17.7 20.9 0.00 0.00 0.00 69 1015.9
20260507123755 17 135 17.7 25.7 0.00 0.00 0.00 71 1015.9
20260507123255 17 157 14.5 20.9 0.00 0.00 0.00 72 1016.0
20260507122755 16 180 16.1 22.5 0.00 0.00 0.00 72 1016.1
20260507122255 16 157 11.3 24.1 0.00 0.00 0.00 72 1016.1
20260507121755 17 157 14.5 25.7 0.00 0.00 0.00 69 1016.2
20260507121255 17 157 16.1 20.9 0.00 0.00 0.00 70 1016.3
20260507120755 17 135 12.9 19.3 0.00 0.00 0.00 68 1016.3
20260507120255 17 157 9.7 24.1 0.00 0.00 0.00 69 1016.4
20260507115755 17 157 12.9 16.1 0.00 0.00 0.00 69 1016.4
20260507115255 17 157 14.5 16.1 0.00 0.00 0.00 69 1016.4
20260507114755 17 180 16.1 20.9 0.00 0.00 0.00 69 1016.4
20260507114255 17 157 14.5 20.9 0.00 0.00 0.00 68 1016.5
20260507113755 17 157 20.9 20.9 0.00 0.00 0.00 70 1016.5
20260507113255 18 157 17.7 22.5 0.00 0.00 0.00 68 1016.4
20260507112755 18 135 11.3 22.5 0.00 0.00 0.00 67 1016.5
20260507112255 18 157 11.3 19.3 0.00 0.00 0.00 66 1016.4
20260507111755 18 157 12.9 19.3 0.00 0.00 0.00 66 1016.4
20260507111255 18 157 16.1 19.3 0.00 0.00 0.00 65 1016.4
20260507110755 18 135 19.3 19.3 0.00 0.00 0.00 67 1016.4
20260507110255 18 157 17.7 19.3 0.00 0.00 0.00 65 1016.5
20260507105755 18 135 8.0 17.7 0.00 0.00 0.00 65 1016.4
20260507105255 18 157 16.1 17.7 0.00 0.00 0.00 66 1016.4
20260507104755 18 135 9.7 19.3 0.00 0.00 0.00 66 1016.4
20260507104255 18 180 6.4 17.7 0.00 0.00 0.00 66 1016.3
20260507103755 18 135 17.7 19.3 0.00 0.00 0.00 67 1016.4
20260507103255 18 112 9.7 16.1 0.00 0.00 0.00 67 1016.4
20260507102755 18 135 11.3 19.3 0.00 0.00 0.00 67 1016.4
20260507102255 18 157 16.1 19.3 0.00 0.00 0.00 68 1016.4
20260507101755 18 157 9.7 20.9 0.00 0.00 0.00 67 1016.4
20260507101255 18 157 17.7 17.7 0.00 0.00 0.00 67 1016.4
20260507100755 18 135 8.0 17.7 0.00 0.00 0.00 66 1016.3
20260507100255 18 157 11.3 20.9 0.00 0.00 0.00 66 1016.3
20260507095755 18 135 14.5 17.7 0.00 0.00 0.00 65 1016.4
20260507095255 18 157 14.5 16.1 0.00 0.00 0.00 66 1016.3
20260507094755 18 135 4.8 22.5 0.00 0.00 0.00 66 1016.4
20260507094255 18 157 22.5 22.5 0.00 0.00 0.00 64 1016.4
20260507093755 18 135 6.4 24.1 0.00 0.00 0.00 64 1016.4
20260507093255 19 180 11.3 14.5 0.00 0.00 0.00 64 1016.4
20260507092755 19 135 9.7 16.1 0.00 0.00 0.00 64 1016.4
20260507092255 18 157 4.8 17.7 0.00 0.00 0.00 64 1016.3
20260507091755 19 135 16.1 16.1 0.00 0.00 0.00 64 1016.3
20260507091255 20 135 14.5 25.7 0.00 0.00 0.00 64 1016.4
20260507090755 19 135 9.7 17.7 0.00 0.00 0.00 64 1016.4
20260507090255 20 157 9.7 17.7 0.00 0.00 0.00 64 1016.3
20260507085755 19 157 9.7 24.1 0.00 0.00 0.00 65 1016.3
20260507085255 19 157 24.1 24.1 0.00 0.00 0.00 65 1016.3
20260507084755 19 90 8.0 16.1 0.00 0.00 0.00 65 1016.4
20260507084255 19 135 9.7 17.7 0.00 0.00 0.00 66 1016.3
20260507083755 19 157 6.4 17.7 0.00 0.00 0.00 66 1016.2